OSCAR 3 1 01293U 65016F 08280.72295680 +.00000097 +00000-0 +94011-4 0 03708 2 01293 070.0719 359.1755 0016746 155.2166 204.9753 14.04662210224213 OSCAR 5 1 04321U 70008B 08281.49831906 -.00000031 00000-0 10000-3 0 635 2 04321 102.1327 281.8361 0027821 097.8641 262.5588 12.52154563769138 OSCAR 6 1 06236U 72082B 08280.98917239 -.00000027 +00000-0 +10000-3 0 00650 2 06236 101.4127 298.4878 0004184 028.7486 331.3815 12.53075251645698 OSCAR 7 1 07530U 74089B 08280.86304984 -.00000027 +00000-0 +10000-3 0 02978 2 07530 101.4575 308.5889 0012097 044.6614 315.5422 12.53574360550979 OSCAR 8 1 10703U 78026B 08280.92198143 +.00000100 +00000-0 +99108-4 0 02950 2 10703 098.8681 328.9417 0007274 143.9076 216.2583 13.98819632560612 OSCAR 10 1 14129U 83058B 08276.98402311 -.00000084 00000-0 10000-3 0 5704 2 14129 026.0341 192.7005 5962049 161.9538 234.6789 02.05868384162357 OSCAR 11 (UoSAT 2) 1 14781U 84021B 08281.17114260 -.00000108 00000-0 -71748-5 0 7819 2 14781 098.1434 316.8192 0010147 074.9812 285.2654 14.79666626320411 OSCAR 16 (PACSAT) 1 20439U 90005D 08280.46352396 -.00000016 +00000-0 +91928-5 0 04355 2 20439 098.2443 254.9134 0010368 201.6252 158.4508 14.31804140976845 OSCAR 17 (DOVE) 1 20440U 90005E 08280.44802245 -.00000025 +00000-0 +58192-5 0 01395 2 20440 098.2233 260.1995 0010521 197.3665 162.7165 14.32106721976970 OSCAR 18 (WEBERSAT) 1 20441U 90005F 08281.59758045 -.00000017 00000-0 88730-5 0 6477 2 20441 098.2288 259.8451 0011096 197.5742 162.5048 14.31872781977074 OSCAR 19 (LUSAT) 1 20442U 90005G 08281.12123850 .00000500 00000-0 20135-3 0 3574 2 20442 098.2142 263.7259 0011417 196.6042 163.4819 14.32043683977094 JAS 1B (FUJI 2) 1 20480U 90013C 08280.66188598 -.00000013 00000-0 40741-4 0 9553 2 20480 099.0416 242.6531 0540659 024.3932 338.1769 12.83359231874384 COSMOS 2123 1 21089U 91007A 08280.86094944 -.00000002 +00000-0 -17380-4 0 09660 2 21089 082.9163 094.6576 0028509 318.0819 041.8151 13.74482305886393 OSCAR 22 (UoSAT 5) 1 21575U 91050B 08281.40899953 .00000046 00000-0 28610-4 0 3918 2 21575 098.4092 228.3439 0008328 059.9418 300.2592 14.39651175904334 OSCAR 23 (KITSAT 1) 1 22077U 92052B 08281.55924161 -.00000037 00000-0 10000-3 0 5540 2 22077 066.0832 135.7478 0004829 340.4372 019.6467 12.86445892759021 KITSAT B 1 22825U 93061C 08280.79215400 -.00000035 00000-0 28225-5 0 774 2 22825 098.3998 236.7019 0007576 294.0016 066.0361 14.29247974783719 POSAT 1 1 22826U 93061D 08280.89675522 -.00000002 00000-0 15695-4 0 7903 2 22826 098.3925 237.6636 0008184 290.7927 069.2378 14.29497922783820 ITAMSAT 1 22828U 93061F 08280.42450311 +.00000026 +00000-0 +26429-4 0 00153 2 22828 098.3864 237.1720 0009016 263.4939 096.5236 14.29800628752023 EYESAT A 1 22829U 93061G 08280.47879331 +.00000033 +00000-0 +28889-4 0 00549 2 22829 098.3810 238.3452 0008845 261.1520 098.8665 14.30198363784035 RADIO ROSTO 1 23439U 94085A 08281.47484116 -.00000039 00000-0 10000-3 0 1507 2 23439 064.8196 313.4751 0145859 100.9769 260.7601 11.27552398567626 JAS 2 1 24278U 96046B 08280.78933127 -.00000051 +00000-0 -12859-4 0 08802 2 24278 098.5742 182.4290 0349849 286.7386 069.5644 13.52939941599488 TMSAT 1 25396U 98043C 08281.21524708 .00000095 00000-0 59779-4 0 2232 2 25396 098.3637 315.9675 0001749 252.3588 107.7418 14.23763901532300 TECHSAT 1B 1 25397U 98043D 08281.74228029 -.00000009 00000-0 14179-4 0 7155 2 25397 098.3542 311.2932 0000305 279.4410 080.6732 14.23149096532224 SEDSAT 1 1 25509U 98061B 08280.67720432 .00000197 00000-0 25260-4 0 2960 2 25509 031.4353 045.9474 0354974 281.9206 074.1869 14.28228581519567 PAN SAT 1 25520U 98064B 08280.95479569 +.00000480 +00000-0 +13841-4 0 01055 2 25520 028.4588 150.4807 0005420 066.0689 294.0477 15.17237300550150 ISS (ZARYA) 1 25544U 98067A 08280.84339287 +.00011191 +00000-0 +88027-4 0 03965 2 25544 051.6412 163.8597 0004046 185.4817 215.0447 15.72056224566103 UOSAT 12 1 25693U 99021A 08280.46173527 -.00000044 +00000-0 +13618-4 0 07438 2 25693 064.5573 175.3218 0032700 222.7041 137.1536 14.78723582510328 OPAL 1 26063U 00004C 08280.29730410 -.00000009 +00000-0 +17110-4 0 03285 2 26063 100.1885 014.9240 0036507 256.5334 103.1784 14.35845125455513 SAUDISAT 1A 1 26545U 00057A 08281.26081915 .00000082 00000-0 29533-4 0 824 2 26545 064.5582 176.8951 0041684 318.4302 041.3669 14.80533650433751 TIUNGSAT 1 1 26548U 00057D 08281.22167772 -.00000012 00000-0 16798-4 0 2150 2 26548 064.5571 143.5946 0040262 308.8490 050.9028 14.83301213434431 SAUDISAT 1B 1 26549U 00057E 08280.48698495 .00000028 00000-0 23088-4 0 1570 2 26549 064.5577 194.5218 0043056 324.5111 035.3147 14.79390611433337 AMSAT OSCAR 40 1 26609U 00072B 08280.25174162 -.00000393 00000-0 10000-3 0 1305 2 26609 007.8861 056.6764 7937434 130.6680 331.2093 01.25586961 36430 PCSAT 1 26931U 01043C 08281.50780514 .00000122 00000-0 80038-4 0 9952 2 26931 067.0561 355.3029 0007191 262.2521 097.7759 14.29535252366460 SAPPHIRE 1 26932U 01043D 08281.55096371 -.00000026 00000-0 22273-4 0 9961 2 26932 067.0580 355.0782 0008431 271.4971 088.5167 14.29593548366513 RUBIN 2 1 27605U 02058A 08280.52336276 -.00000172 +00000-0 -36700-5 0 07448 2 27605 064.5589 063.7825 0084982 258.5619 100.5931 14.72365394311599 SAUDISAT 1C 1 27607U 02058C 08281.42438072 .00000080 00000-0 34336-4 0 7164 2 27607 064.5581 072.7670 0085694 257.7521 101.3998 14.71384521311487 MOZHAYETS 4 1 27939U 03042A 08281.26112002 .00000087 00000-0 25785-4 0 6131 2 27939 097.9750 158.7971 0012981 207.2350 152.8183 14.63261624268589 AMSAT ECHO 1 28375U 04025K 08280.52467104 -.00000000 00000-0 12445-4 0 2155 2 28375 098.0662 298.8095 0083391 174.4152 185.7985 14.40619829224439 HAMSAT 1 28650U 05017B 08280.24102822 +.00000248 +00000-0 +38073-4 0 00500 2 28650 097.7773 343.7367 0027903 136.7709 223.5667 14.81505724185046 SSETI-EXPRESS 1 28894U 05043E 08281.52844207 .00000031 00000-0 16160-4 0 2809 2 28894 098.0805 172.6429 0018646 060.8494 299.4564 14.59636246156995 MOZ.5/SAFIR/RUBIN 5/SL-8 1 28898U 05043G 08280.32844518 .00000078 00000-0 26443-4 0 1473 2 28898 098.0694 168.8690 0020022 073.6484 286.6918 14.58543800156694 SUITSAT (Decayed 2006-09-07) 1 28933U 05035C 06250.56263144 .13300754 00000-0 18638-3 0 4012 2 28933 051.6150 101.2534 0006572 313.0977 047.0289 16.48585101 34276 CUTE 1.7 1 28941U 06005C 08281.74581306 .00023034 26728-5 15307-3 0 4422 2 28941 098.1165 048.3672 0148257 350.9726 008.8777 15.62333197147587 HITSAT (Decayed 2008-06-18) 1 29484U 06041F 08170.27591928 .21901596 31637-5 19690-3 0 4662 2 29484 098.2496 292.5583 0013872 275.6258 084.5236 16.51113477 98738 RAFT (Decayed 2007-05-30) 1 29661U 06055C 07150.05824307 .13324117 12618-4 10400-3 0 3000 2 29661 051.6186 176.5045 0007204 190.7749 188.7342 16.52052832 25544 MARSCOM (Decayed 2007-05-06) 1 29662U 06055D 07126.39603970 .07031946 12599-4 11450-3 0 2632 2 29662 051.6121 302.3682 0004459 252.1654 110.7411 16.47981436 21652 ANDE MAA SPHERE 1 (Decayed 2007-12-25) 1 29664U 06055F 07359.16654419 .14620719 12705-4 12723-3 0 7381 2 29664 051.6179 150.0690 0003189 248.8461 111.8136 16.51627846 58777 ANDE FCAL SPHERE 2 (Decayed 2008-05-25) 1 29667U 06055J 08146.34060426 .11864717 12752-4 73624-4 0 9790 2 29667 051.6107 065.3702 0009039 260.8350 099.5042 16.53464210 82911 PEHUENSAT 1 1 29712U 07001D 08281.57204507 .00000478 00000-0 69521-4 0 8601 2 29712 097.8637 337.5868 0014783 020.7051 339.4758 14.80285984 94091